Wind_Speed
28 27 27 27 27 27 27 27 27 26 26 26 26 26 26 26 25 23 21 20 19 19 18 18 17 16 16 16 16 16 17 17 17 17 17 17 16 16 16 16 15 15 15
33 33 33 33 33 32 31 31 31 31 30 30 30 29 29 29 28 27 25 23 22 21 20 20 19 18 17 17 17 17 18 18 18 18 18 18 18 18 18 17 17 17 16
37 37 37 37 37 37 36 36 35 35 35 34 33 33 32 31 31 30 29 26 24 23 23 22 21 20 20 19 19 19 19 19 19 20 20 20 20 20 20 20 19 19 18
41 41 41 41 41 41 40 39 38 38 38 37 37 36 34 33 33 32 32 30 28 26 25 24 23 23 22 21 21 21 21 21 21 21 22 22 22 22 22 22 22 21 20
43 44 44 43 44 44 43 43 41 40 40 40 39 38 36 35 35 34 33 33 31 29 28 26 25 25 25 24 23 23 22 22 23 23 23 23 23 24 24 24 24 23 23
44 44 45 45 46 46 45 45 43 43 43 42 41 39 39 37 36 34 34 33 31 31 30 29 27 26 26 25 25 24 24 24 24 24 24 25 25 25 26 26 26 26 25
46 45 45 46 46 46 45 45 44 44 44 42 40 38 38 37 36 35 33 33 32 31 30 29 27 26 25 25 25 25 25 25 25 25 26 26 26 27 27 28 28 28 28
46 46 47 48 47 46 45 44 44 43 42 41 39 38 38 37 35 34 34 32 32 32 30 28 27 26 24 24 24 24 25 25 25 26 27 28 28 28 29 30 30 30 30
47 48 49 47 47 45 43 42 42 42 41 41 40 40 40 39 36 34 33 32 30 30 30 30 28 26 25 24 23 24 24 24 24 25 27 28 29 30 30 32 32 32 32
50 50 49 48 47 46 45 44 43 43 43 42 41 41 40 39 37 34 34 33 31 31 30 29 27 25 24 24 23 23 24 24 24 25 26 27 28 30 31 32 32 33 34
52 52 51 50 49 47 46 45 44 44 44 42 41 40 39 38 36 35 35 34 32 30 29 28 27 25 24 24 23 23 24 24 24 25 26 26 28 30 31 32 33 34 35
53 53 52 51 50 48 47 45 45 45 44 43 40 39 38 37 37 36 34 31 29 29 28 28 26 25 24 24 23 23 24 24 25 25 26 27 28 30 31 32 34 35 36
53 53 53 52 50 49 48 46 45 44 43 42 40 39 38 38 36 33 30 28 28 28 28 27 25 24 24 24 23 24 24 25 25 26 27 28 29 30 31 32 33 35 36
54 54 55 54 52 51 50 48 46 45 43 41 40 39 39 36 33 31 29 27 27 27 27 26 24 24 24 24 24 24 25 25 26 26 27 28 29 30 31 32 33 34 35
54 54 53 53 52 51 51 50 47 44 42 40 39 37 36 33 30 28 27 26 26 26 26 26 25 24 25 25 25 25 26 27 28 28 28 29 29 30 30 31 33 34 35
51 53 53 53 52 50 49 47 45 43 40 39 37 35 33 32 29 27 27 26 25 26 26 27 26 26 27 27 27 27 28 29 30 30 30 30 30 31 31 31 32 32 33
44 45 46 48 49 48 46 45 44 42 39 36 34 33 32 29 27 26 25 24 25 25 26 27 28 28 28 29 30 30 31 31 32 33 33 32 32 31 31 32 33 33 33
39 40 40 41 42 41 40 40 40 39 37 36 33 31 30 28 26 25 25 25 25 26 27 28 29 29 30 31 33 34 34 34 35 35 35 35 35 34 33 33 33 34 34
34 34 35 34 34 35 35 35 34 35 35 34 31 30 29 28 26 25 25 25 25 26 27 28 29 31 32 33 34 35 36 37 38 38 38 38 37 36 35 35 34 34 34
28 28 27 27 27 29 30 30 30 31 32 32 32 30 28 27 25 23 24 24 25 25 26 28 29 31 33 34 36 37 38 39 40 40 40 39 39 38 37 36 36 35 34
23 22 21 21 23 24 24 25 25 26 27 28 28 27 24 22 21 21 22 22 23 24 26 28 30 32 34 35 37 38 40 40 41 42 42 41 40 40 39 38 37 36 35
19 19 18 17 19 20 20 21 22 22 23 22 21 21 19 19 19 19 20 21 22 24 26 28 30 32 34 36 37 39 40 41 42 42 43 42 42 41 40 39 38 36 35
16 15 14 14 15 16 17 17 18 17 16 16 15 15 14 15 15 17 18 19 21 23 25 27 30 32 34 35 37 38 40 41 42 42 42 41 41 41 40 39 38 36 35
13 12 11 10 11 12 12 13 12 12 12 12 12 12 12 12 13 14 16 18 20 22 24 26 28 31 33 34 36 37 37 38 39 40 40 39 39 39 38 38 37 37 36
12 12 11 9 9 9 9 9 9 10 10 10 10 10 10 11 11 12 14 16 18 20 23 25 28 30 31 33 34 35 35 36 36 36 36 36 36 36 36 35 35 35 36
11 10 9 8 8 7 7 8 9 9 8 8 8 8 8 9 9 10 12 15 17 19 22 24 26 28 30 31 32 32 32 33 33 33 33 33 33 33 33 33 33 33 33
Wind_Direction
298 297 296 295 294 294 293 293 293 292 290 289 288 288 287 287 288 288 290 294 298 300 302 303 304 303 299 294 289 285 281 279 278 277 277 279 279 279 279 278 277 275 273
297 297 296 296 296 294 293 292 291 290 289 287 286 285 285 284 284 285 285 287 291 293 295 297 299 299 297 293 289 286 282 278 277 276 276 276 277 277 277 277 277 275 273
295 295 295 295 295 294 293 292 292 291 289 288 286 283 281 281 281 280 281 282 284 287 290 291 292 294 293 291 289 285 281 279 275 274 274 275 275 275 274 275 275 274 273
292 292 292 293 294 293 292 291 291 291 290 288 286 284 283 281 279 279 279 279 281 284 285 286 288 289 290 289 287 284 280 278 276 274 273 272 272 272 272 272 272 272 272
290 290 290 290 291 291 291 290 289 288 289 289 286 284 284 282 279 279 279 277 279 281 283 284 286 286 287 286 284 283 280 278 276 274 273 272 271 270 270 270 270 269 270
287 288 289 288 288 289 289 289 287 287 287 287 286 284 284 282 279 278 279 277 278 280 281 282 283 284 285 285 282 280 278 276 275 274 272 271 271 271 270 270 268 267 267
287 286 286 285 285 285 286 287 286 288 288 288 285 285 284 281 280 278 279 277 276 278 280 281 282 282 282 282 281 279 276 274 272 272 271 271 271 271 270 269 267 266 265
286 286 285 285 284 284 285 285 287 288 287 287 285 284 283 279 278 278 278 277 276 279 280 280 281 281 281 280 278 278 277 275 273 272 270 270 269 270 269 269 267 266 265
283 284 283 284 286 286 286 287 288 287 285 285 284 283 281 279 275 273 274 276 275 276 277 279 278 277 279 279 277 277 277 276 275 274 272 271 270 269 269 268 268 266 265
281 281 284 285 285 284 286 286 286 286 285 285 282 280 278 276 273 271 271 272 271 272 274 275 275 276 277 276 276 277 276 276 276 276 275 273 272 271 271 270 269 268 266
280 281 282 283 284 285 285 284 282 283 284 283 281 278 275 273 271 269 269 270 268 268 268 270 273 274 274 273 276 276 276 276 276 277 277 276 275 273 272 270 268 267 267
278 279 279 280 282 283 284 283 281 281 281 281 281 277 273 269 268 266 265 265 265 266 266 267 269 271 273 274 275 275 276 276 278 280 279 279 278 276 274 272 270 267 267
277 277 278 278 278 279 280 280 280 281 280 279 278 275 268 267 265 260 260 261 264 264 265 265 267 269 270 273 274 275 277 279 281 282 283 282 280 278 276 274 273 270 268
276 275 275 274 275 276 277 277 277 278 276 275 273 270 264 261 259 256 255 256 259 261 264 266 268 269 271 273 274 276 278 280 282 284 285 285 284 282 279 276 274 272 270
276 274 273 272 271 272 273 274 274 275 272 269 266 265 258 255 254 253 254 254 257 260 264 267 268 271 274 274 275 277 278 280 281 283 284 284 285 283 281 278 275 274 272
276 273 271 270 270 270 271 272 271 271 267 264 262 258 254 253 251 253 253 253 256 260 263 267 270 272 274 276 278 278 279 280 281 281 282 283 284 283 280 278 276 274 272
279 275 272 269 269 269 268 268 267 266 262 261 258 255 253 251 248 251 253 255 258 261 265 268 271 274 276 279 280 280 280 281 281 281 282 282 282 282 280 277 275 274 272
281 278 273 271 268 267 267 266 265 259 256 256 255 254 251 249 250 253 254 256 260 264 267 270 273 276 277 279 280 281 281 281 281 281 280 280 279 279 278 277 274 273 271
284 279 276 271 267 265 265 261 260 255 254 253 251 248 248 251 251 253 257 259 263 266 268 271 274 277 278 280 280 281 281 281 280 280 279 277 277 276 276 275 274 272 270
290 281 275 268 265 263 258 258 254 251 248 246 244 244 245 248 250 254 259 262 265 269 272 275 278 279 280 281 281 281 281 280 279 278 277 276 274 273 273 272 271 270 268
291 284 278 266 260 258 255 252 249 247 243 241 238 237 240 244 249 254 259 265 269 273 277 279 281 282 282 283 283 283 282 281 279 278 276 275 273 271 269 268 268 268 266
292 287 280 265 257 256 254 248 247 245 238 236 234 232 235 242 251 258 264 269 273 277 280 282 284 285 286 286 286 285 284 282 280 278 277 274 272 270 268 266 265 266 264
298 288 277 268 266 260 252 247 241 236 234 237 239 237 239 247 257 264 270 276 280 283 286 288 289 291 291 291 290 289 287 285 282 279 276 274 271 269 267 265 263 262 261
299 295 290 279 261 247 240 241 239 237 238 237 237 239 245 254 263 269 276 281 285 288 291 293 295 296 296 296 294 292 290 287 284 281 276 274 270 268 266 264 262 259 257
297 293 290 283 271 257 249 245 238 236 234 231 234 240 249 258 266 275 281 287 292 296 299 301 302 303 303 302 299 297 294 290 286 283 279 275 272 268 265 262 260 257 254
293 291 287 277 266 257 251 245 234 227 223 226 232 240 249 260 270 282 291 298 303 307 309 310 311 311 311 309 305 302 298 294 289 285 281 278 273 268 264 261 258 254 252
Height
5900 5899 5898 5897 5897 5895 5894 5893 5892 5891 5890 5889 5888 5887 5886 5885 5885 5884 5884 5883 5882 5881 5880 5878 5877 5876 5875 5875 5874 5874 5874 5874 5874 5874 5875 5875 5875 5875 5876 5876 5876 5876 5876
5895 5894 5892 5891 5890 5889 5888 5887 5886 5885 5884 5883 5882 5881 5880 5880 5879 5879 5879 5879 5878 5877 5876 5875 5874 5873 5872 5871 5871 5870 5870 5870 5870 5870 5871 5871 5871 5872 5872 5872 5873 5873 5873
5888 5887 5886 5885 5884 5882 5881 5880 5879 5878 5877 5876 5876 5874 5874 5873 5873 5873 5872 5872 5873 5872 5871 5870 5869 5868 5868 5867 5866 5866 5865 5865 5865 5866 5866 5866 5867 5867 5868 5868 5869 5869 5869
5881 5880 5879 5878 5876 5875 5874 5873 5872 5870 5870 5869 5868 5867 5866 5866 5866 5865 5865 5865 5866 5866 5866 5865 5864 5863 5863 5862 5861 5861 5860 5860 5860 5860 5861 5861 5862 5862 5862 5863 5864 5864 5865
5873 5871 5870 5869 5868 5867 5866 5865 5863 5863 5861 5860 5859 5859 5858 5858 5858 5858 5858 5858 5858 5858 5859 5859 5859 5858 5857 5856 5856 5855 5855 5855 5855 5855 5855 5855 5856 5856 5857 5858 5859 5859 5860
5864 5863 5861 5860 5859 5858 5857 5856 5854 5853 5852 5851 5850 5850 5850 5849 5850 5850 5850 5849 5850 5851 5851 5851 5852 5851 5851 5850 5850 5849 5849 5849 5849 5849 5849 5849 5850 5851 5851 5852 5853 5853 5854
5854 5854 5852 5851 5850 5848 5847 5846 5845 5844 5842 5841 5840 5840 5840 5840 5841 5841 5841 5841 5842 5843 5843 5843 5844 5844 5844 5843 5843 5843 5842 5842 5842 5842 5843 5843 5844 5844 5845 5845 5846 5847 5848
5844 5843 5842 5841 5840 5838 5838 5836 5835 5834 5833 5832 5831 5831 5831 5832 5832 5832 5832 5833 5833 5835 5835 5836 5836 5836 5836 5836 5836 5836 5836 5835 5835 5836 5836 5836 5837 5837 5838 5839 5839 5840 5841
5835 5833 5832 5830 5829 5828 5827 5827 5826 5825 5824 5823 5822 5821 5822 5823 5824 5824 5823 5824 5824 5826 5827 5828 5829 5829 5828 5829 5829 5829 5829 5828 5828 5828 5829 5829 5829 5830 5831 5831 5832 5833 5834
5824 5823 5821 5820 5819 5818 5818 5817 5816 5815 5814 5814 5813 5812 5813 5813 5814 5815 5815 5816 5816 5818 5819 5820 5820 5821 5821 5821 5822 5822 5821 5821 5821 5821 5821 5822 5822 5823 5823 5824 5824 5825 5826
5812 5812 5811 5809 5809 5808 5807 5807 5806 5805 5805 5804 5803 5803 5802 5803 5804 5805 5807 5808 5809 5810 5811 5812 5812 5813 5814 5814 5815 5815 5814 5814 5814 5814 5814 5814 5814 5814 5815 5815 5815 5816 5817
5801 5800 5799 5798 5798 5797 5797 5796 5795 5794 5794 5794 5794 5794 5794 5794 5795 5796 5798 5799 5800 5801 5803 5804 5805 5805 5806 5807 5808 5807 5807 5806 5806 5806 5806 5806 5806 5806 5806 5806 5806 5807 5808
5789 5788 5787 5786 5786 5786 5786 5786 5785 5784 5783 5784 5783 5783 5784 5785 5786 5787 5788 5790 5792 5793 5795 5796 5797 5798 5799 5800 5800 5800 5799 5799 5799 5798 5798 5798 5798 5798 5798 5798 5798 5798 5798
5775 5775 5774 5773 5774 5774 5774 5774 5774 5773 5773 5773 5773 5773 5773 5775 5776 5777 5780 5782 5784 5785 5786 5788 5789 5790 5791 5791 5792 5792 5792 5791 5791 5790 5790 5790 5790 5790 5789 5789 5789 5789 5789
5760 5759 5759 5759 5759 5760 5761 5761 5762 5762 5762 5762 5763 5764 5764 5766 5768 5770 5772 5774 5777 5778 5779 5779 5781 5782 5783 5783 5784 5784 5784 5783 5783 5782 5782 5782 5781 5781 5780 5780 5780 5779 5779
5744 5743 5745 5744 5744 5746 5748 5749 5750 5750 5751 5752 5753 5754 5756 5757 5759 5762 5764 5767 5768 5770 5771 5772 5773 5774 5774 5775 5775 5775 5775 5775 5774 5774 5774 5773 5773 5772 5771 5771 5770 5770 5770
5730 5729 5730 5730 5731 5733 5736 5737 5738 5740 5741 5743 5744 5746 5748 5749 5751 5754 5757 5759 5761 5762 5763 5764 5765 5766 5766 5766 5766 5766 5766 5766 5766 5765 5765 5764 5764 5763 5762 5761 5761 5761 5761
5719 5717 5717 5718 5720 5721 5724 5725 5727 5729 5731 5733 5735 5738 5740 5742 5744 5747 5749 5752 5754 5755 5756 5757 5757 5758 5758 5758 5757 5757 5757 5756 5756 5755 5754 5754 5753 5753 5752 5752 5751 5751 5751
5709 5707 5707 5708 5709 5711 5713 5715 5716 5719 5722 5725 5727 5730 5733 5735 5737 5740 5742 5744 5746 5747 5748 5749 5749 5749 5749 5749 5748 5747 5746 5745 5745 5744 5743 5743 5742 5742 5742 5741 5741 5741 5741
5701 5699 5699 5700 5701 5703 5705 5707 5708 5710 5713 5716 5719 5722 5725 5728 5731 5733 5735 5737 5738 5739 5740 5740 5741 5740 5740 5739 5738 5737 5735 5734 5733 5732 5731 5731 5730 5730 5730 5730 5730 5730 5730
5695 5693 5693 5693 5695 5697 5698 5700 5703 5704 5707 5709 5712 5715 5718 5722 5725 5727 5729 5730 5731 5732 5732 5732 5732 5731 5730 5729 5727 5725 5724 5722 5720 5719 5718 5718 5717 5717 5717 5718 5718 5719 5719
5691 5690 5689 5690 5691 5692 5694 5695 5698 5700 5701 5704 5706 5709 5712 5716 5719 5721 5722 5723 5724 5725 5724 5724 5723 5722 5720 5718 5716 5714 5712 5710 5708 5706 5705 5704 5704 5704 5704 5705 5706 5707 5708
5689 5687 5687 5687 5687 5688 5690 5692 5693 5695 5697 5700 5702 5705 5708 5711 5713 5715 5716 5717 5717 5717 5716 5716 5714 5712 5710 5708 5705 5702 5700 5697 5695 5693 5692 5691 5690 5690 5691 5692 5693 5695 5697
5687 5686 5685 5685 5685 5686 5687 5689 5690 5692 5694 5696 5699 5701 5704 5706 5708 5710 5710 5711 5711 5710 5709 5707 5706 5703 5700 5697 5694 5691 5688 5685 5681 5679 5678 5678 5677 5678 5678 5679 5681 5683 5685
5685 5685 5684 5684 5684 5684 5685 5686 5688 5690 5692 5694 5696 5698 5700 5702 5704 5705 5705 5705 5705 5704 5702 5700 5697 5694 5691 5687 5683 5679 5676 5673 5670 5668 5666 5665 5665 5665 5666 5667 5669 5671 5674
5683 5682 5682 5682 5682 5683 5683 5685 5686 5688 5689 5691 5693 5695 5697 5699 5700 5700 5700 5700 5698 5697 5695 5692 5689 5686 5682 5677 5673 5669 5665 5662 5659 5657 5655 5654 5654 5654 5656 5656 5658 5660 5662